This demonstration page uses our WeatherBlox Daily Observations layout. Learn more.

Hourly Observations for October 11, 2020

Temp ( °F °C ) Dew Point ( °F °C ) Humidity (%) Winds ( mph kmh ) Pressure ( in mb ) Visibility ( mi km ) Precip ( " mm )
12:53 am 00:53 Clear 64 17.8 36 2.2 35 35 E 10 17 29.54 1000 10 16.0934 0 0
1:53 am 01:53 Clear 65 18.3 33 0.6 31 31 SSE 7 11 29.51 999 10 16.0934 0 0
2:53 am 02:53 Clear 59 15 32 0 36 36 E 6 9 29.49 999 10 16.0934 0 0
3:53 am 03:53 Clear 54 12.2 36 2.2 51 51 ENE 5 7 29.47 998 10 16.0934 0 0
4:53 am 04:53 Clear 53 11.7 36 2.2 52 52 Calm 29.47 998 10 16.0934 0 0
5:53 am 05:53 Clear 57 13.9 35 1.7 44 44 ENE 3 6 29.46 998 10 16.0934 0 0
6:53 am 06:53 Clear 55 12.8 37 2.8 51 51 E 9 15 29.48 998 10 16.0934 0 0
7:53 am 07:53 Sunny 64 17.8 30 -1.1 28 28 WNW 10 17 29.47 998 10 16.0934 0 0
8:53 am 08:53 Sunny 61 16.1 31 -0.6 32 32 WNW 9 15 29.5 999 10 16.0934 0 0
9:53 am 09:53 Sunny 67 19.4 33 0.6 28 28 WNW 12 19 29.52 1000 10 16.0934 0 0
10:53 am 10:53 Sunny 71 21.7 38 3.3 30 30 WNW 28 44 29.51 999 10 16.0934 0 0
11:53 am 11:53 Sunny 71 21.7 38 3.3 30 30 W 23 37 29.53 1000 10 16.0934 0 0
12:53 pm 12:53 Cloudy with Light Rain 61 16.1 38 3.3 43 43 W 31 50 29.62 1003 7 11.26538 0.001 0.001
1:53 pm 13:53 Partly Cloudy with Light Rain 55 12.8 39 3.9 55 55 NW 39 63 29.7 1006 8 12.87472 0.001 0.001
2:53 pm 14:53 Sunny with Light Rain 53 11.7 35 1.7 51 51 NW 33 54 29.78 1009 10 16.0934 0.001 0.001
3:53 pm 15:53 Partly Cloudy with Light Rain 50 10 34 1.1 54 54 NW 28 44 29.83 1010 10 16.0934 0.001 0.001
4:53 pm 16:53 Sunny with Light Rain 52 11.1 30 -1.1 43 43 NW 16 26 29.85 1011 10 16.0934 0.001 0.001
5:53 pm 17:53 Sunny with Light Rain 54 12.2 28 -2.2 37 37 NNW 14 22 29.87 1012 10 16.0934 0.001 0.001
6:53 pm 18:53 Clear with Light Rain 47 8.3 28 -2.2 48 48 undefined N/A 29.94 1014 10 16.0934 0.001 0.001
7:53 pm 19:53 Clear 45 7.2 28 -2.2 52 52 WSW 7 11 29.94 1014 10 16.0934 0.001 0.001
8:53 pm 20:53 Clear with Light Rain 41 5 28 -2.2 60 60 WNW 7 11 29.97 1015 10 16.0934 0.001 0.001
9:53 pm 21:53 Partly Cloudy with Isolated Snow Showers 37 2.8 28 -2.2 70 70 N 6 9 29.98 1015 9 14.48406 0.001 0.001
10:53 pm 22:53 Clear 35 1.7 27 -2.8 72 72 N 5 7 29.97 1015 10 16.0934 0.001 0.001
11:53 pm 23:53 Clear 32 0 26 -3.3 79 79 NW 7 11 29.99 1016 10 16.0934 0.001 0.001

Powered by AerisWeather